| time (UTC) | temp F | wind direction | speed knots | gust knots | rain 1hr in | rain 24hr in | rain mn in | humidity % | barometer mb |
| 20260506001548 | 51 | 31 | 1.7 | 7.8 | 0.00 | 0.24 | 0.00 | 78 | 1007.0 |
| 20260506000023 | 51 | 42 | 1.7 | 5.2 | 0.00 | 0.24 | 0.00 | 79 | 1007.1 |
| 20260505234606 | 51 | 26 | 2.6 | 5.2 | 0.00 | 0.37 | 0.00 | 79 | 1007.4 |
| 20260505233031 | 51 | 12 | 1.7 | 5.2 | 0.00 | 0.37 | 0.00 | 79 | 1007.4 |
| 20260505231507 | 51 | 5 | 0.9 | 1.7 | 0.00 | 0.37 | 0.00 | 86 | 1007.4 |
| 20260505230042 | 51 | 348 | 0.0 | 1.7 | 0.00 | 0.37 | 0.00 | 87 | 1007.6 |
| 20260505224519 | 51 | 22 | 0.0 | 4.3 | 0.00 | 0.62 | 0.00 | 86 | 1007.5 |
| 20260505223056 | 51 | 24 | 0.0 | 2.6 | 0.00 | 0.62 | 0.00 | 88 | 1007.7 |
| 20260505221530 | 51 | 342 | 0.0 | 2.6 | 0.00 | 0.62 | 0.00 | 89 | 1007.7 |
| 20260505220004 | 51 | 342 | 0.9 | 2.6 | 0.00 | 0.62 | 0.00 | 89 | 1007.7 |
| 20260505214549 | 51 | 344 | 0.0 | 1.7 | 0.00 | 0.65 | 0.62 | 89 | 1007.9 |
| 20260505213017 | 51 | 340 | 0.0 | 2.6 | 0.00 | 0.65 | 0.62 | 89 | 1008.0 |
| 20260505211609 | 51 | 338 | 0.0 | 1.7 | 0.00 | 0.65 | 0.62 | 89 | 1008.0 |
| 20260505210031 | 51 | 337 | 0.0 | 0.9 | 0.00 | 0.65 | 0.62 | 88 | 1008.1 |
| 20260505204507 | 51 | 337 | 0.0 | 1.7 | 0.00 | 0.65 | 0.62 | 89 | 1008.0 |
| 20260505203044 | 51 | 338 | 0.0 | 0.9 | 0.00 | 0.65 | 0.62 | 89 | 1008.1 |
| 20260505201518 | 51 | 340 | 0.0 | 0.9 | 0.00 | 0.65 | 0.62 | 89 | 1008.0 |
| 20260505200055 | 51 | 351 | 0.9 | 3.5 | 0.00 | 0.65 | 0.62 | 88 | 1008.1 |
| 20260505194529 | 52 | 5 | 0.0 | 4.3 | 0.00 | 0.65 | 0.62 | 87 | 1008.0 |
| 20260505193005 | 52 | 345 | 1.7 | 4.3 | 0.00 | 0.65 | 0.62 | 86 | 1008.0 |
| 20260505191544 | 52 | 344 | 0.0 | 2.6 | 0.00 | 0.65 | 0.62 | 85 | 1007.9 |
| 20260505190031 | 52 | 15 | 0.0 | 2.6 | 0.00 | 0.65 | 0.62 | 84 | 1007.7 |
| 20260505184557 | 52 | 342 | 0.9 | 4.3 | 0.00 | 0.65 | 0.62 | 84 | 1007.7 |
| 20260505183038 | 52 | 355 | 0.9 | 4.3 | 0.00 | 0.65 | 0.62 | 83 | 1007.8 |
| 20260505181509 | 52 | 349 | 1.7 | 5.2 | 0.00 | 0.65 | 0.62 | 84 | 1007.7 |
| 20260505180046 | 53 | 360 | 0.9 | 7.8 | 0.00 | 0.65 | 0.62 | 84 | 1007.7 |
| 20260505174521 | 53 | 334 | 1.7 | 7.0 | 0.00 | 0.65 | 0.62 | 82 | 1007.7 |
| 20260505173058 | 53 | 338 | 1.7 | 8.7 | 0.00 | 0.65 | 0.62 | 82 | 1007.8 |
| 20260505171535 | 53 | 336 | 2.6 | 7.8 | 0.00 | 0.65 | 0.62 | 82 | 1008.0 |
| 20260505170015 | 53 | 329 | 2.6 | 7.8 | 0.00 | 0.65 | 0.62 | 81 | 1008.0 |
| 20260505164610 | 53 | 338 | 2.6 | 7.8 | 0.00 | 0.65 | 0.62 | 80 | 1008.0 |
| 20260505163022 | 54 | 336 | 1.7 | 4.3 | 0.00 | 0.65 | 0.62 | 78 | 1008.0 |
| 20260505161615 | 54 | 15 | 1.7 | 7.0 | 0.00 | 0.65 | 0.62 | 77 | 1008.0 |
| 20260505153040 | 54 | 17 | 0.0 | 4.3 | 0.00 | 0.65 | 0.62 | 78 | 1008.4 |
| 20260505151510 | 54 | 5 | 0.9 | 5.2 | 0.00 | 0.65 | 0.62 | 77 | 1008.5 |
| 20260505124501 | 52 | 5 | 1.7 | 7.0 | 0.00 | 0.65 | 0.62 | 79 | 1009.4 |
| 20260505123043 | 52 | 31 | 1.7 | 7.8 | 0.00 | 0.65 | 0.62 | 79 | 1009.4 |
| 20260505121513 | 52 | 9 | 2.6 | 8.7 | 0.00 | 0.65 | 0.62 | 80 | 1009.5 |
| 20260505114520 | 51 | 37 | 1.7 | 4.3 | 0.00 | 0.65 | 0.62 | 85 | 1009.7 |
| 20260505113059 | 50 | 33 | 0.9 | 4.3 | 0.00 | 0.65 | 0.62 | 85 | 1009.7 |
| 20260505111535 | 50 | 35 | 0.0 | 4.3 | 0.00 | 0.65 | 0.62 | 86 | 1009.8 |
| 20260505101546 | 48 | 350 | 2.6 | 7.8 | 0.00 | 0.65 | 0.62 | 85 | 1010.1 |
| 20260505100027 | 48 | 347 | 1.7 | 7.0 | 0.00 | 0.65 | 0.62 | 84 | 1010.1 |
| 20260505094600 | 48 | 336 | 1.7 | 7.8 | 0.00 | 0.65 | 0.62 | 84 | 1010.1 |
| 20260505093035 | 49 | 347 | 1.7 | 7.0 | 0.00 | 0.65 | 0.62 | 85 | 1010.2 |
| 20260505091511 | 48 | 5 | 0.9 | 4.3 | 0.00 | 0.65 | 0.62 | 85 | 1010.3 |
| 20260505090047 | 48 | 343 | 1.7 | 4.3 | 0.00 | 0.65 | 0.62 | 85 | 1010.4 |
| 20260505084526 | 48 | 335 | 1.7 | 8.7 | 0.00 | 0.65 | 0.62 | 87 | 1010.2 |
| 20260505083059 | 47 | 350 | 1.7 | 5.2 | 0.00 | 0.65 | 0.62 | 86 | 1010.3 |
| 20260505081541 | 47 | 20 | 0.9 | 5.2 | 0.00 | 0.65 | 0.62 | 87 | 1010.4 |
| 20260505080003 | 47 | 5 | 0.0 | 7.0 | 0.00 | 0.65 | 0.62 | 87 | 1010.5 |
| 20260505074540 | 47 | 347 | 1.7 | 5.2 | 0.00 | 0.65 | 0.62 | 87 | 1010.5 |
| 20260505073015 | 47 | 344 | 0.0 | 4.3 | 0.00 | 0.65 | 0.62 | 89 | 1010.4 |
| 20260505071555 | 47 | 26 | 0.0 | 4.3 | 0.00 | 0.65 | 0.62 | 88 | 1010.4 |
| 20260505070022 | 46 | 355 | 0.9 | 7.0 | 0.00 | 0.65 | 0.62 | 88 | 1010.4 |
| 20260505064604 | 46 | 340 | 2.6 | 7.0 | 0.00 | 0.65 | 0.62 | 88 | 1010.3 |
| 20260505063029 | 46 | 342 | 2.6 | 7.0 | 0.00 | 0.65 | 0.62 | 89 | 1010.3 |
| 20260505061509 | 46 | 355 | 2.6 | 7.8 | 0.00 | 0.65 | 0.62 | 90 | 1010.3 |
| 20260505060039 | 47 | 348 | 0.9 | 7.8 | 0.00 | 0.65 | 0.62 | 91 | 1010.3 |
| 20260505054509 | 46 | 355 | 0.9 | 7.0 | 0.00 | 0.65 | 0.62 | 91 | 1010.4 |
| 20260505053056 | 46 | 355 | 0.9 | 5.2 | 0.00 | 0.65 | 0.62 | 91 | 1010.3 |
| 20260505051617 | 46 | 15 | 0.9 | 7.0 | 0.00 | 0.65 | 0.62 | 91 | 1010.3 |
| 20260505041530 | 46 | 32 | 0.0 | 1.7 | 0.02 | 0.65 | 0.62 | 92 | 1010.3 |
| 20260505040006 | 46 | 20 | 0.9 | 3.5 | 0.04 | 0.65 | 0.62 | 92 | 1010.3 |
| 20260505034538 | 47 | 32 | 0.0 | 2.6 | 0.04 | 0.65 | 0.61 | 92 | 1010.4 |
| 20260505033013 | 47 | 23 | 0.0 | 1.7 | 0.04 | 0.64 | 0.61 | 92 | 1010.4 |
| 20260505031548 | 47 | 9 | 0.0 | 1.7 | 0.03 | 0.63 | 0.60 | 92 | 1010.4 |
| 20260505030027 | 47 | 29 | 0.9 | 5.2 | 0.03 | 0.61 | 0.57 | 92 | 1010.4 |
| 20260505024601 | 47 | 360 | 0.0 | 4.3 | 0.03 | 0.61 | 0.56 | 92 | 1010.5 |
| 20260505023035 | 47 | 5 | 0.9 | 4.3 | 0.02 | 0.60 | 0.56 | 92 | 1010.6 |
| 20260505021511 | 46 | 29 | 0.9 | 7.0 | 0.02 | 0.59 | 0.56 | 91 | 1010.6 |
| 20260505020046 | 47 | 341 | 1.7 | 7.0 | 0.02 | 0.57 | 0.55 | 92 | 1010.7 |
| 20260505014520 | 47 | 322 | 0.9 | 7.0 | 0.01 | 0.56 | 0.54 | 92 | 1010.7 |
| 20260505013058 | 47 | 340 | 0.0 | 7.0 | 0.03 | 0.56 | 0.54 | 91 | 1010.7 |
| 20260505011536 | 47 | 355 | 1.7 | 7.0 | 0.12 | 0.56 | 0.54 | 91 | 1010.7 |
| 20260505010009 | 47 | 355 | 1.7 | 4.3 | 0.15 | 0.56 | 0.54 | 91 | 1010.8 |
| 20260505004545 | 47 | 36 | 1.7 | 5.2 | 0.19 | 0.56 | 0.54 | 91 | 1010.9 |
| 20260505003020 | 47 | 333 | 0.0 | 7.0 | 0.20 | 0.54 | 0.51 | 91 | 1011.0 |